[Iaude] MPEC V183: 2016 VK [a=1.76,e=0.77,i=5.9,H=22.42]
    mpec at marsden.cfa.harvard.edu 
    mpec at marsden.cfa.harvard.edu
       
    Fri Nov 10 16:22:52 EST 2023
    
    
  
M.P.E.C. 2023-V183                            Issued 2023 November 10, 21:21 UT
     The Minor Planet Electronic Circulars contain information on unusual
         minor planets, routine data on comets and natural satellites,
         and occasional editorial announcements.  They are published
    on behalf of Division F of the International Astronomical Union by the
          Minor Planet Center, Smithsonian Astrophysical Observatory,
                          Cambridge, MA 02138, U.S.A.
			  
             Prepared using the Tamkin Foundation Computer Network
                              MPC at CFA.HARVARD.EDU
            URL https://www.minorplanetcenter.net/    ISSN 1523-6714
                                    2016 VK                                     
                           Revision to MPEC 2016-V28                            
Additional Observations:
     K16V00K  C2023 10 15.41359403 27 56.866+18 08 32.68         22.50GVEV183F51
     K16V00K  C2023 10 15.42696603 27 56.353+18 08 25.48         22.48GVEV183F51
     K16V00K  C2023 10 15.44103603 27 55.849+18 08 17.83         22.94GVEV183F51
     K16V00K  C2023 10 15.45433903 27 55.341+18 08 10.69         22.42GVEV183F51
     K16V00K 1C2023 11 05.35599702 47 17.840+09 51 12.96         19.89GVEV183G96
     K16V00K 1C2023 11 05.36115702 47 16.390+09 50 56.40         20.11GVEV183G96
     K16V00K 1C2023 11 05.36632702 47 14.946+09 50 40.20         19.92GVEV183G96
     K16V00K 1C2023 11 05.37150502 47 13.499+09 50 23.96         20.05GVEV183G96
     K16V00K KC2023 11 05.44288102 46 53.591+09 46 34.97         20.25GVEV183I52
     K16V00K KC2023 11 05.44381902 46 53.342+09 46 32.27         20.45GVEV183I52
     K16V00K KC2023 11 05.44476502 46 53.090+09 46 28.74         20.29GVEV183I52
     K16V00K KC2023 11 05.44571902 46 52.835+09 46 25.97         20.24GVEV183I52
     K16V00K  C2023 11 10.37072702 18 09.293+04 00 54.76         19.81GVEV183F51
     K16V00K  C2023 11 10.38272702 18 03.674+03 59 49.05         19.77GVEV183F51
     K16V00K  C2023 11 10.39475302 17 58.032+03 58 43.15         19.73GVEV183F51
Observer details:
F51 Pan-STARRS 1, Haleakala.  Observers J. Bulger, T. Lowe, P. Minguez, A.
    Schultz, I. Smith.  Measurers K. Chambers, T. de Boer, J. Fairlamb, H.
    Gao, M. Huber, C.-C. Lin, E. Magnier, Y. Ramanjooloo, R. Wainscoat, R.
    Weryk.  1.8-m Ritchey-Chretien + CCD.
G96 Mt. Lemmon Survey.  Observer J. B. Fazekas.  Measurers E. C. Beshore, D.
    Fay, J. B. Fazekas, D. C. Fuls, A. R. Gibbs, A. D. Grauer, H. Groeller, J.
    K. Hogan, R. A. Kowalski, S. M. Larson, G. J. Leonard, D. Rankin, R. L.
    Seaman, F. C. Shelly, K. W. Wierzchos.  1.5-m reflector + 10K CCD.
I52 Steward Observatory, Mt. Lemmon Station.  Observer R. A. Kowalski.
    Measurers E. C. Beshore, D. Fay, J. B. Fazekas, D. C. Fuls, A. R. Gibbs,
    A. D. Grauer, H. Groeller, J. K. Hogan, R. A. Kowalski, S. M. Larson, G.
    J. Leonard, D. Rankin, R. L. Seaman, F. C. Shelly, K. W. Wierzchos.  1.0-m
    prime focus + CCD.
First and last observations above in comparison with prediction:
Residuals in seconds of arc (or zero decimals in degrees), reference and Delta-T
231015 F51   34+    8+    231110 F51   32+    2+    MPO397900   +49.4 days
Orbital elements:
2016 VK                                                  Earth MOID = 0.0413 AU
Epoch 2023 Sept. 13.0 TT = JDT 2460200.5                Veres                   
M 310.83484              (2000.0)            P               Q                  
n   0.42225090     Peri.  315.61255     -0.96926168     -0.24038564             
a   1.7596339      Node   210.59224     +0.24449169     -0.91728852             
e   0.7733367      Incl.    5.91062     +0.02748848     -0.31748466             
P   2.33           H   22.42          G   0.15           U   0                  
Residuals in seconds of arc
161102 G96  0.2-  0.2+    161104 H21  0.4+  0.2-    161119 705  1.4+  0.9+
161102 G96  0.8-  0.4-    161104 H21  0.3-  0.5+    161119 705  0.6+  0.3+
161102 G96  0.5-  0.5+    161104 300  0.5+  1.4+    231015 F51  0.5-  0.1+
161102 691  0.3+  1.1-    161104 300  0.3+  2.0+    231015 F51  0.7-  0.0
161102 691  1.1-  1.4-    161104 300  1.2+  1.3+    231015 F51  0.4-  0.2-
161102 691  0.1+  1.1-    161104 300  0.1+  0.2+    231015 F51  0.4-  0.1-
161103 J95  0.0   0.8+    161110 807  0.0   0.2-    231105 G96  0.1+  0.0
161103 J95  0.1-  0.4-    161110 807  0.1-  0.1-    231105 G96  0.0   0.1-
161103 926  0.0   0.1+    161110 807  0.2-  0.1+    231105 G96  0.0   0.1+
161103 926  0.1+  0.0     161110 H21  0.1+  0.5-    231105 G96  0.0   0.4+
161103 926  0.0   0.0     161110 H21  0.5+  0.2+    231105 I52  0.2-  0.1+
161104 H36  0.4-  0.2-    161116 807  0.3-  0.6-    231105 I52  0.0   0.4+
161104 H36  0.4+  0.1-    161116 807  0.4-  0.2-    231105 I52  0.2+  0.0
161104 H36  0.7-  0.5+    161116 807  0.4-  0.3-    231105 I52  0.3+  0.3+
161104 926  0.1-  0.0     161116 807  0.6-  0.1-    231110 F51  0.2+  0.3+
161104 926  0.1-  0.2+    161116 807  0.2-  0.0     231110 F51  0.2+  0.2+
161104 926  0.2+  0.3+    161119 705  0.8+  0.7+    231110 F51  0.1+  0.2+
Ephemeris:
2016 VK                  a,e,i = 1.76, 0.77, 6                   q = 0.3988
Date    TT    R. A. (2000) Decl.     Delta      r    Elong.  Phase     V
2023 10 11    03 29 34.7 +18 42 41   0.6337  1.5496   142.4    23.2    23.5
...
2023 10 26    03 16 49.7 +15 39 43   0.3944  1.3730   160.9    13.7    21.9
...
2023 11 03    02 56 42.3 +11 42 13   0.2814  1.2719   172.9     5.6    20.6
...
2023 11 09    02 27 41.7 +05 56 51   0.2060  1.1927   167.5    10.3    20.0
2023 11 10    02 20 52.5 +04 34 16   0.1945  1.1792   164.7    12.8    20.0
2023 11 11    02 13 16.2 +03 01 45   0.1834  1.1656   161.4    15.7    19.9
...
2023 11 17    01 03 23.5 -10 56 00   0.1291  1.0823   133.8    41.2    19.8
...
2023 11 25    21 51 01.0 -35 35 46   0.1176  0.9664    76.4    96.8    21.2
...
2023 12 10    17 55 27.8 -34 40 35   0.2635  0.7355    16.2   158.1    29.2
A. U. Tomatic                (C) Copyright 2023 MPC           M.P.E.C. 2023-V183
    
    
More information about the Iaude
mailing list